{"data":{"norad_id":63221,"intl_designator":"2025-052M","name":"TRANSPORTER-13 OBJECT M","alt_names":[],"object_type":"PAYLOAD","status":"ACTIVE","operator":null,"country":"TBD","launch_date":"2025-03-15","launch_site_code":"AFWTR","launch_vehicle":null,"mission":null,"orbit_class":"UNKNOWN","rcs_meters":null,"size_class":null,"mass_kg":null,"dimensions":null,"purposes":[],"wikipedia_slug":null,"has_3d_model":false,"image_url":null,"decayed_at":null,"tle_current":{"epoch":"2026-09-22T16:34:55.697088Z","epoch_age_seconds":121495,"freshness":"FRESH","line1":"1 63221U 25052M   26265.69092242  .00002450  00000+0  10870-3 0  9992","line2":"2 63221  97.3732 156.0671 0004285 136.6398 223.5176 15.22503828 84675","mean_motion":15.22503828,"eccentricity":0.0004285,"inclination_deg":97.3732,"raan_deg":156.0671,"arg_perigee_deg":136.6398,"mean_anomaly_deg":223.5176,"bstar":0.0001087,"rev_number":8467,"period_min":94.581042984412,"perigee_km":495.34464758845,"apogee_km":501.23774655334,"semimajor_km":6876.4281970709,"source":"CELESTRAK","updated_at":"2026-09-23T09:00:21.900899Z"}}}